When you browse on this site, cookies collect data to enhance your experience and personalize the content and advertising you see.
Visit our Privacy Policy to learn more. By continuing to use the site, you agree to this use of cookies and data.
  • In Österreich
  • Länderverzeichnis
  • Für 7 Tage
  • Wassertemperatur
  • Satellitenkarten
  • Wetterkarte
  • News
  • Widgets
  • user-avatar
    Anmelden

    Stündliche Wetter Andora

    Heute, 22 Juli, Montag

    Zeit Temperatur Niederschläge Wind Luftdruck Luftfeuchtigkeit
    00:00 +16°C° 0 mm 1 m/S 631 mmHg 76%
    01:00 +16°C° 0 mm 1 m/S 630 mmHg 75%
    02:00 +16°C° 0 mm 1 m/S 630 mmHg 75%
    03:00 +16°C° 0 mm 1 m/S 630 mmHg 74%
    04:00 +16°C° 0 mm 1 m/S 630 mmHg 72%
    05:00 +18°C° 0 mm 1 m/S 630 mmHg 70%
    06:00 +19°C° 0 mm 1 m/S 631 mmHg 67%
    07:00 +22°C° 0 mm 1 m/S 632 mmHg 56%
    08:00 +24°C° 0 mm 1 m/S 633 mmHg 45%
    09:00 +27°C° 0 mm 1 m/S 634 mmHg 34%
    10:00 +28°C° 0 mm 1 m/S 634 mmHg 32%
    11:00 +29°C° 0 mm 2 m/S 634 mmHg 30%
    12:00 +30°C° 0 mm 2 m/S 634 mmHg 28%
    13:00 +29°C° 0 mm 2 m/S 634 mmHg 28%
    14:00 +29°C° 0 mm 2 m/S 634 mmHg 29%
    15:00 +29°C° 0 mm 2 m/S 633 mmHg 29%
    16:00 +28°C° 0.1 mm 2 m/S 633 mmHg 37%
    17:00 +26°C° 0.1 mm 1 m/S 632 mmHg 45%
    18:00 +25°C° 0.1 mm 1 m/S 631 mmHg 53%
    19:00 +23°C° 0 mm 1 m/S 631 mmHg 54%
    20:00 +21°C° 0 mm 1 m/S 630 mmHg 55%
    21:00 +18°C° 0 mm 1 m/S 629 mmHg 56%
    22:00 +18°C° 0 mm 1 m/S 629 mmHg 53%
    23:00 +18°C° 0 mm 1 m/S 629 mmHg 50%

    Morgen, 23 Juli, Dienstag

    Zeit Temperatur Niederschläge Wind Luftdruck Luftfeuchtigkeit
    00:00 +18°C° 0 mm 1 m/S 629 mmHg 47%
    01:00 +18°C° 0 mm 1 m/S 629 mmHg 46%
    02:00 +18°C° 0 mm 1 m/S 629 mmHg 45%
    03:00 +18°C° 0 mm 1 m/S 628 mmHg 44%
    04:00 +18°C° 0 mm 1 m/S 629 mmHg 46%
    05:00 +19°C° 0 mm 1 m/S 629 mmHg 47%
    06:00 +20°C° 0 mm 1 m/S 629 mmHg 48%
    07:00 +22°C° 0 mm 1 m/S 630 mmHg 42%
    08:00 +25°C° 0 mm 1 m/S 631 mmHg 35%
    09:00 +28°C° 0 mm 1 m/S 632 mmHg 29%
    10:00 +28°C° 0 mm 2 m/S 632 mmHg 27%
    11:00 +29°C° 0 mm 2 m/S 632 mmHg 25%
    12:00 +30°C° 0 mm 2 m/S 632 mmHg 23%
    13:00 +30°C° 0 mm 2 m/S 632 mmHg 25%
    14:00 +29°C° 0 mm 2 m/S 631 mmHg 27%
    15:00 +29°C° 0 mm 2 m/S 631 mmHg 29%
    16:00 +27°C° 0 mm 2 m/S 630 mmHg 35%
    17:00 +26°C° 0 mm 2 m/S 630 mmHg 41%
    18:00 +25°C° 0 mm 2 m/S 629 mmHg 47%
    19:00 +23°C° 0 mm 1 m/S 628 mmHg 50%
    20:00 +21°C° 0 mm 1 m/S 628 mmHg 53%
    21:00 +19°C° 0 mm 1 m/S 628 mmHg 56%
    22:00 +18°C° 0 mm 1 m/S 627 mmHg 54%
    23:00 +18°C° 0 mm 1 m/S 627 mmHg 53%

    übermorgen, 24 Juli, Mittwoch

    Zeit Temperatur Niederschläge Wind Luftdruck Luftfeuchtigkeit
    00:00 +18°C° 0 mm 1 m/S 627 mmHg 52%
    01:00 +18°C° 0 mm 1 m/S 627 mmHg 51%
    02:00 +18°C° 0 mm 1 m/S 627 mmHg 49%
    03:00 +16°C° 0 mm 1 m/S 627 mmHg 48%
    04:00 +18°C° 0 mm 1 m/S 627 mmHg 48%
    05:00 +19°C° 0 mm 1 m/S 627 mmHg 48%
    06:00 +19°C° 0 mm 1 m/S 627 mmHg 48%
    07:00 +22°C° 0 mm 1 m/S 628 mmHg 42%
    08:00 +24°C° 0 mm 1 m/S 629 mmHg 36%
    09:00 +27°C° 0 mm 1 m/S 630 mmHg 29%
    10:00 +28°C° 0 mm 2 m/S 630 mmHg 28%
    11:00 +29°C° 0 mm 2 m/S 630 mmHg 26%
    12:00 +29°C° 0 mm 2 m/S 631 mmHg 25%
    13:00 +29°C° 0 mm 2 m/S 630 mmHg 26%
    14:00 +29°C° 0 mm 2 m/S 630 mmHg 27%
    15:00 +29°C° 0 mm 2 m/S 629 mmHg 28%
    16:00 +27°C° 0 mm 2 m/S 629 mmHg 35%
    17:00 +26°C° 0 mm 2 m/S 628 mmHg 41%
    18:00 +25°C° 0 mm 2 m/S 628 mmHg 48%
    19:00 +23°C° 0 mm 2 m/S 627 mmHg 53%
    20:00 +21°C° 0 mm 1 m/S 627 mmHg 57%
    21:00 +19°C° 0 mm 1 m/S 626 mmHg 62%
    22:00 +18°C° 0 mm 1 m/S 626 mmHg 62%
    23:00 +18°C° 0 mm 1 m/S 626 mmHg 61%

    25 Juli, Donnerstag

    Zeit Temperatur Niederschläge Wind Luftdruck Luftfeuchtigkeit
    00:00 +18°C° 0 mm 1 m/S 625 mmHg 61%
    01:00 +18°C° 0 mm 1 m/S 625 mmHg 58%
    02:00 +18°C° 0 mm 1 m/S 625 mmHg 56%
    03:00 +16°C° 0 mm 1 m/S 625 mmHg 54%
    04:00 +18°C° 0 mm 1 m/S 625 mmHg 52%
    05:00 +19°C° 0 mm 1 m/S 626 mmHg 51%
    06:00 +19°C° 0 mm 1 m/S 626 mmHg 49%
    07:00 +21°C° 0 mm 2 m/S 627 mmHg 43%
    08:00 +24°C° 0 mm 2 m/S 628 mmHg 36%
    09:00 +27°C° 0 mm 2 m/S 629 mmHg 30%
    10:00 +27°C° 0 mm 2 m/S 629 mmHg 28%
    11:00 +28°C° 0 mm 3 m/S 629 mmHg 27%
    12:00 +29°C° 0 mm 3 m/S 629 mmHg 26%
    13:00 +29°C° 0 mm 3 m/S 628 mmHg 26%
    14:00 +29°C° 0 mm 4 m/S 628 mmHg 27%
    15:00 +29°C° 0 mm 4 m/S 628 mmHg 27%
    16:00 +27°C° 0 mm 3 m/S 627 mmHg 33%
    17:00 +26°C° 0 mm 3 m/S 627 mmHg 40%
    18:00 +25°C° 0 mm 2 m/S 626 mmHg 46%
    19:00 +21°C° 0 mm 2 m/S 626 mmHg 51%
    20:00 +20°C° 0 mm 1 m/S 625 mmHg 55%
    21:00 +18°C° 0 mm 1 m/S 624 mmHg 60%
    22:00 +18°C° 0 mm 1 m/S 624 mmHg 59%
    23:00 +16°C° 0 mm 1 m/S 624 mmHg 58%

    26 Juli, Freitag

    Zeit Temperatur Niederschläge Wind Luftdruck Luftfeuchtigkeit
    00:00 +16°C° 0 mm 1 m/S 624 mmHg 57%
    01:00 +16°C° 0 mm 1 m/S 624 mmHg 58%
    02:00 +15°C° 0 mm 1 m/S 624 mmHg 59%
    03:00 +15°C° 0 mm 1 m/S 624 mmHg 60%
    04:00 +15°C° 0 mm 1 m/S 624 mmHg 62%
    05:00 +15°C° 0 mm 1 m/S 625 mmHg 64%
    06:00 +15°C° 0 mm 0 m/S 625 mmHg 65%
    07:00 +19°C° 0 mm 1 m/S 626 mmHg 59%
    08:00 +19°C° 0 mm 2 m/S 627 mmHg 53%
    09:00 +21°C° 0 mm 2 m/S 628 mmHg 47%
    10:00 +22°C° 0 mm 3 m/S 628 mmHg 46%
    11:00 +22°C° 0 mm 3 m/S 628 mmHg 46%
    12:00 +23°C° 0 mm 4 m/S 628 mmHg 45%
    13:00 +22°C° 0.1 mm 4 m/S 628 mmHg 49%
    14:00 +22°C° 0.1 mm 4 m/S 627 mmHg 54%
    15:00 +21°C° 0.1 mm 3 m/S 627 mmHg 58%
    16:00 +19°C° 0.2 mm 3 m/S 627 mmHg 66%
    17:00 +18°C° 0.2 mm 2 m/S 626 mmHg 75%
    18:00 +18°C° 0.2 mm 1 m/S 626 mmHg 83%
    19:00 +16°C° 0.3 mm 1 m/S 626 mmHg 87%
    20:00 +14°C° 0.3 mm 1 m/S 626 mmHg 91%
    21:00 +13°C° 0.3 mm 1 m/S 625 mmHg 95%
    22:00 +13°C° 0.1 mm 1 m/S 625 mmHg 95%
    23:00 +13°C° 0.1 mm 1 m/S 625 mmHg 95%

    27 Juli, Samstag

    Zeit Temperatur Niederschläge Wind Luftdruck Luftfeuchtigkeit
    00:00 +13°C° 0.1 mm 1 m/S 625 mmHg 95%
    01:00 +12°C° 0.1 mm 1 m/S 625 mmHg 95%
    02:00 +12°C° 0.1 mm 1 m/S 625 mmHg 95%
    03:00 +12°C° 0.1 mm 1 m/S 625 mmHg 94%
    04:00 +12°C° 0 mm 1 m/S 625 mmHg 94%
    05:00 +12°C° 0 mm 1 m/S 625 mmHg 93%
    06:00 +12°C° 0 mm 1 m/S 625 mmHg 92%
    07:00 +14°C° 0 mm 1 m/S 626 mmHg 86%
    08:00 +15°C° 0 mm 1 m/S 627 mmHg 80%
    09:00 +16°C° 0 mm 1 m/S 627 mmHg 74%
    10:00 +17°C° 0 mm 2 m/S 628 mmHg 67%
    11:00 +19°C° 0 mm 2 m/S 628 mmHg 60%
    12:00 +20°C° 0 mm 3 m/S 628 mmHg 53%
    13:00 +19°C° 0 mm 2 m/S 628 mmHg 55%
    14:00 +19°C° 0 mm 2 m/S 627 mmHg 58%
    15:00 +18°C° 0 mm 2 m/S 627 mmHg 61%
    16:00 +18°C° 0 mm 2 m/S 626 mmHg 64%
    17:00 +17°C° 0 mm 2 m/S 626 mmHg 67%
    18:00 +16°C° 0 mm 2 m/S 626 mmHg 70%
    19:00 +15°C° 0 mm 2 m/S 626 mmHg 77%
    20:00 +13°C° 0 mm 1 m/S 626 mmHg 84%
    21:00 +11°C° 0 mm 1 m/S 625 mmHg 91%
    22:00 +11°C° 0 mm 1 m/S 625 mmHg 90%
    23:00 +11°C° 0 mm 1 m/S 625 mmHg 90%
    Mehr zeigen